Location: Unspecified
(48.8656°N, 0.0000°E)
Time: 10:02:44
(UTC+00:00)

SR - Pass Details

Date: 29 June 2019
Orbit: 580 x 876 km, 66.7° (Epoch: 20 July)

Event Time Altitude Azimuth Distance (km) Brightness Sun altitude
Rises 07:38:30 0° 326° (NNW) 2,936 ? 32.7°
Reaches altitude 10° 07:42:11 10° 357° (N) 2,089 ? 33.3°
Maximum altitude 07:44:08 12° 22° (NNE) 1,972 ? 33.7°
Drops below altitude 10° 07:46:07 10° 46° (NE) 2,163 ? 34.0°
Sets 07:50:06 0° 76° (ENE) 3,161 ? 34.6°
